www.pogodaiklimat.ru

Погода и климат >> Архив погоды >> Мексика >> Тапачула


ПОГОДА в Тапачуле

  • Прогноз погоды в Тапачуле
  • Монитор погоды в Тапачуле

АРХИВ ПОГОДЫ в Тапачуле

Время (UTC), дата Ветер
(напр.,м/с)
 
Видим.   Явления Облачность Т
(С)
Тd
(С)
f
(%)
Тe
(С)
Тes
(С)
Комфортность P
(гПа)
Po
(гПа)
Тmin
(С)
Tmax
(С)
R
(мм)
R24
(мм)
S
(см)
06 13.06 Ю 1 15 км {морось} 8/0
[Ac und]
+25.9 +24.4 91 +36 +36 очень
душно
1014.0 1000.6 2
09 13.06 ЮВ 2 15 км слаб. морось 8/0
[Ac As]
+25.0 +23.6 92 +34 +34 очень
душно
1012.8 999.3 2
12 13.06 Ю 1 15 км {морось} 6/0
[Ac und]
+24.5 +23.0 91 +32 +33 очень
душно
1012.3 998.8 +24.5 +36.1 2
15 13.06 СЗ 2 20 км 9/0
[Ac As]
+27.6 +24.2 82 +39 +43 очень
душно
1014.8 1001.3
18 13.06 С 6 25 км 8/8 1000 м
[Cu med, cong]
+30.3 +25.2 74 +44 +46 опасность
перегрева
1014.1 1000.6 +24.5 +34.6
21 13.06 ЮЗ 5 20 км слаб. морось 9/9 900 м
[Cb cap]
+26.4 +25.5 95 +39 +39 очень
душно
1013.1 999.7 2
00 14.06 Ю 1 20 км слаб. морось 9/9 900 м
[Cb cap]
+25.1 +24.3 95 +35 +35 очень
душно
1013.8 1000.4 +24.5 +34.6 8
03 14.06 ЮЗ 2 15 км {морось} 6/0
[Ac As]
+24.9 +24.5 98 +35 +35 очень
душно
1014.3 1000.8 2
09 14.06 ЮВ 3 15 км 8/0
[Ac As]
+24.5 +22.5 89 +32 +32 очень
душно
1013.3 999.7
12 14.06 С 2 25 км 4/0
[Ac As]
+23.9 +22.5 92 +31 +31 очень
душно
1013.4 999.8 +23.1 +34.6
15 14.06 СЗ 1 30 км 4/0 2000 м
[Ac trans Ci sp]
+29.5 +23.5 70 +40 +50 очень
душно
1014.6 1001.0
18 14.06 Ю 2 30 км 8/5 1000 м
[Cu hum Ci fib]
+31.8 +25.3 69 +46 +56 опасность
перегрева
1014.2 1000.7 +23.1 +34.5
21 14.06 Ю 2 30 км 6/6 900 м
[Cb calv]
+31.9 +25.2 68 +46 +51 опасность
перегрева
1011.2 997.9
00 15.06 СВ 2 30 км {дождь} 9/5 900 м
[Cb calv Ac trans]
+24.7 +23.6 94 +34 +34 очень
душно
1012.5 999.2 +23.1 +35.0 9
03 15.06 СВ 1 10 км {морось} 5/0 2000 м
[Ac trans]
+25.5 +24.3 93 +35 +35 очень
душно
1013.8 1000.4 0.5
06 15.06 СВ 1 10 км 4/0
[Ac trans]
+25.4 +24.2 93 +35 +35 очень
душно
1014.9 1001.4 +35.0
09 15.06 СВ 1 10 км 3/0
[Ci fib]
+24.9 +23.4 91 +33 +33 очень
душно
1012.4 998.9
12 15.06 СВ 1 10 км ясно +24.1 +22.9 93 +32 +32 очень
душно
1013.0 999.5 +23.6 +35.0
15 15.06 ЮЗ 1 40 км ясно +31.9 +23.0 59 +42 +55 опасность
перегрева
1013.2 999.7
18 15.06 Ю 1 35 км 3/3 1020 м
[Cu hum]
+33.9 +23.5 55 +45 +63 опасность
перегрева
1012.6 999.2 +23.6 +34.2
21 15.06 СЗ 6 30 км 4/4 1000 м
[Cu med, cong]
+28.5 +22.1 68 +37 +40 очень
душно
1010.2 996.9
00 16.06 В 4 20 км 9/4 1000 м
[Cu med, cong Ac As]
+30.6 +25.3 73 +44 +44 опасность
перегрева
1010.1 996.9 +23.6 +35.5
03 16.06 С 3 10 км 6/0 2000 м
[Ac As]
+28.6 +25.8 85 +43 +43 опасность
перегрева
1012.6 999.3
06 16.06 Ю 1 10 км 5/0 2000 м
[Ac As]
+28.0 +25.3 85 +41 +41 опасность
перегрева
1012.7 999.4 +23.6 +35.5
09 16.06 В 2 10 км 5/0
[Ac As]
+27.5 +24.7 85 +39 +39 очень
душно
1011.1 997.8
12 16.06 В 2 35 км ясно +25.8 +23.0 85 +34 +35 очень
душно
1011.1 997.7 +23.2 +35.5
15 16.06 СЗ 3 30 км ясно +30.8 +25.5 73 +45 +54 опасность
перегрева
1011.9 999.5
18 16.06 В 6 30 км 4/0 1500 м
[Ac und]
+34.8 +25.2 58 +49 +55 опасность
перегрева
1010.3 997.0 +23.2 +35.4
21 16.06 СВ 6 30 км 6/3 1500 м
[Sc Ac As]
+34.6 +25.0 58 +48 +51 опасность
перегрева
1009.0 995.8
00 17.06 СЗ 3 30 км 6/3 1500 м
[Sc Ac As]
+31.2 +25.6 72 +46 +46 опасность
перегрева
1009.5 996.3 +23.2 +36.4
03 17.06 С 1 15 км 8/4 1500 м
[Sc Ac As]
+28.8 +24.5 78 +41 +41 опасность
перегрева
1011.4 998.2
06 17.06 СВ 2 15 км 4/0
[Ac und Cs]
+27.6 +23.2 77 +37 +37 очень
душно
1011.5 998.2 +36.4
09 17.06 В 1 15 км 6/0
[Ac und Cs]
+26.6 +22.4 78 +35 +35 очень
душно
1010.2 996.9
12 17.06 В 1 30 км 5/0
[Ac und]
+26.2 +22.3 79 +34 +34 очень
душно
1010.7 997.3 +25.6 +36.4
15 17.06 СЗ 1 30 км 4/0
[Ac und]
+30.0 +23.7 69 +41 +50 опасность
перегрева
1011.7 998.3
18 17.06 З 2 30 км 5/5 1020 м
[Cu med, cong]
+34.0 +24.3 57 +46 +57 опасность
перегрева
1010.9 997.6 +25.6 +35.8
21 17.06 З 3 30 км 6/6 1020 м
[Cu med, cong]
+33.0 +25.9 66 +48 +52 опасность
перегрева
1009.1 995.8
00 18.06 СВ 2 25 км слаб. дождь 9/5 900 м
[Cb cap Ac As]
+25.6 +24.0 91 +35 +35 очень
душно
1009.8 996.5 +25.6 +36.1 7
03 18.06 Ю 2 15 км слаб. дождь 9/9 900 м
[Cb cap]
+26.4 +24.2 88 +37 +37 очень
душно
1011.5 998.2 3
12 18.06 Ю 1 25 км 4/0
[Ac trans]
+24.8 +22.7 88 +33 +33 очень
душно
1010.9 997.4 +24.8 +36.1
15 18.06 З 6 30 км 4/0
[Ci fib]
+30.9 +26.1 76 +47 +51 опасность
перегрева
1011.9 998.4
18 18.06 Ю 6 30 км 5/3 1000 м
[Cu med, cong Ci fib]
+33.9 +25.7 62 +49 +54 опасность
перегрева
1011.3 997.9 +24.8 +34.9
21 18.06 В 7 30 км 5/5 1000 м
[Cu med, cong]
+34.8 +28.0 68 +56 +57 опасность
перегрева
1009.5 996.2
00 19.06 Ю 6 25 км 8/4 900 м
[Cb cap Ac As]
+30.9 +25.4 73 +45 +45 опасность
перегрева
1009.6 996.9 +24.8 +36.3
03 19.06 СЗ 2 20 км 5/0
[Ac As]
+28.0 +25.2 85 +41 +41 опасность
перегрева
1011.2 998.0
06 19.06 СЗ 1 25 км 3/0
[Ac As]
+27.7 +26.2 92 +42 +42 опасность
перегрева
1012.3 999.0 +24.8 +36.3
12 19.06 ЮВ 2 30 км 5/0
[Ac As]
+26.1 +24.3 90 +36 +37 очень
душно
1010.7 997.3 +25.6 +36.3
15 19.06 СЗ 2 40 км 3/0
[Ci fib]
+31.0 +26.8 78 +48 +58 опасность
перегрева
1011.5 998.1
18 19.06 ЮЗ 1 35 км 3/3 1020 м
[Cu med, cong]
+34.2 +27.2 67 +53 +71 опасность
перегрева
1010.4 997.1 +25.6 +36.3
21 19.06 З 3 30 км 4/4 1020 м
[Cu med, cong]
+35.2 +27.8 66 +56 +62 опасность
перегрева
1008.2 995.0
00 20.06 В 3 20 км в посл. час гроза 10/8 900 м
[Cb cap As op]
+26.5 +24.0 86 +37 +37 очень
душно
1008.4 995.2 +25.6 +36.9 0.5
03 20.06 СВ 2 10 км 8/3 1500 м
[Sc Ac trans]
+27.0 +24.8 88 +39 +39 очень
душно
1010.2 997.0 0.1

 

Местоположение метеостанции Тапачула (Мексика): широта 14.92 долгота -92.25 высота над уровнем моря 118 м.

В архиве по умолчанию представлена погода в Тапачуле за последнюю неделю. Архивные данные за месяц целиком и за предыдущие месяцы, начиная с января 2011 года, Вы можете получить, выбрав интересующий диапазон дат из раскрывающегося списка и нажав кнопку "Ввод!".


*Определитесь, кто Вы:
робот инопланетянин человек

Внимание! Время в таблицах - всемирное. Для получения местного времени необходимо прибавить поправку, которая равна -6 ч.

Смотрите также архив погоды в соседних городах и на ближайших метеорологических станциях:

Погода в Уэуэтенанго (Гватемала) (96 км)
Погода в Комитане (Мексика) (148 км)
Погода в Пуэрто Сан Хосе (Гватемала) (191 км)
Погода в Гватемале (Гватемала) (191 км)
Погода в Сан-Кристобаль-де-лас-Касасе (Мексика) (208 км)
Погода в Тустла-Гутьерресе (Мексика) (224 км)
Погода в Арриаге (Мексика) (229 км)
Погода в Нуэва Окотепеке (Гондурас) (335 км)
Погода во Флоресе (Гватемала) (337 км)
Погода в Салина-Крусе (Мексика) (343 км)

Пояснения к столбцам:

Ветер - указаны скорость ветра в м/с - средняя за 10 мин, порывы в срок и между сроками (в фигурных скобках) и направление, откуда дует ветер: С - северный, СВ - северо-восточный, В - восточный, ЮВ - юго-восточный, Ю - южный, ЮЗ - юго-западный, З - западный, СЗ - северо-западный.
Видимость - горизонтальная дальность видимости в метрах или километрах. При видимости от 1 до 10 км при отсутствии осадков обычно наблюдается дымка, при ухудшении видимости до 1 км и менее - туман. В сухую погоду видимость может ухудшаться дымом, пылью или мглою.
Явления - указаны атмосферные явления, наблюдавшиеся в срок или в последний час перед сроком; фигурными скобками обозначены явления, наблюдавшиеся между сроками (за 1-3 часа до срока); квадратными скобками обозначены град или гололедные отложения с указанием их диаметра в мм.
Облачность - указаны через наклонную черту общая и нижняя облачность в баллах и высота нижней границы облаков в метрах; квадратными скобками обозначены формы облаков: Ci - перистые, Cs - перисто-слоистые, Cc - перисто-кучевые, Ac - высококучевые, As - высокослоистые, Sc - слоисто-кучевые, Ns - слоисто-дождевые, Cu - кучевые, Cb - кучево-дождевые. Подробнее классификацию облаков см. в Атласе облаков (PDF).
T - Температура воздуха - температура, измеренная на высоте 2 м над землей.
Td - Температура точки росы - температура, при понижении до которой содержащийся в воздухе водяной пар достигнет насыщения.
f - Относительная влажность воздуха - влажноcть воздуха, измеренная на высоте 2 м над землей.
Te - Эффективная температура - температура, которую ощущает одетый по сезону человек в тени. Характеристика душности погоды. При расчете учитывается влияние влажности воздуха и скорости ветра на теплоощущения человека.
Tes - Эффективная температура на солнце - температура, которую ощущает человек, с поправкой на солнечный нагрев. Характеристика знойности погоды. Зависит от высоты солнца над горизонтом, облачности и скорости ветра. Ночью, в пасмурную погоду, а также при ветре 12 м/с и более поправка равна нулю.
P - Атмосферное давление - приведенное к уровню моря атмосферное давление.
Po - Атмосферное давление - измеренное на уровне метеостанции атмосферное давление.
Tmin - Минимальная температура - минимум температуры воздуха на высоте 2 м над землей.
Tmax - Максимальная температура - максимум температуры воздуха на высоте 2 м над землей.
R - Количество осадков - Количество выпавших осадков за период времени, мм. При наведении курсора мыши на число - период времени, за который выпало указанное количество осадков.
R24 - Количество осадков - Количество выпавших осадков за 24 часа, мм.
S - Снежный покров - Высота снежного покрова, см. При наведении курсора мыши на число - состояние снежного покрова и степень покрытия местности в баллах.